{"data":{"norad_id":65260,"epoch":"2026-09-21T21:51:38.148480Z","epoch_age_seconds":40376,"freshness":"FRESH","line1":"1 65260U 25180B   26264.91085820  .00002394  00000+0  12771-3 0  9996","line2":"2 65260  97.5390  31.3492 0013983 355.0875   5.0218 15.16059789 60310","mean_motion":15.16059789,"eccentricity":0.0013983,"inclination_deg":97.539,"raan_deg":31.3492,"arg_perigee_deg":355.0875,"mean_anomaly_deg":5.0218,"bstar":0.00012771,"rev_number":6031,"period_min":94.983061383735,"perigee_km":508.12046874209,"apogee_km":527.40554269809,"semimajor_km":6895.9000057201,"source":"CELESTRAK","updated_at":"2026-09-22T09:00:30.244583Z"}}